EW2310 Weather Reports


Display with metric or nautical units.
time (UTC)temp
F
wind
direction
speed
MPH
gust
MPH
rain 1hr
in
rain 24hr
in
rain mn
in
humidity
%
barometer
mb
20260906214540 78 319 0.0 3.0 0.00 0.00 0.00 85 1019.2
20260906214043 79 319 0.0 2.0 0.00 0.00 0.00 84 1019.2
20260906213540 79 320 0.0 4.0 0.00 0.00 0.00 84 1019.2
20260906213040 79 310 0.0 3.0 0.00 0.00 0.00 84 1019.3
20260906212540 79 309 0.0 1.0 0.00 0.00 0.00 84 1019.2
20260906212040 79 308 1.0 3.0 0.00 0.00 0.00 84 1019.2
20260906211543 79 302 0.0 3.0 0.00 0.00 0.00 83 1019.2
20260906211043 79 301 0.0 1.0 0.00 0.00 0.00 83 1019.2
20260906210540 79 301 1.0 1.0 0.00 0.00 0.00 83 1019.3
20260906210040 79 301 0.0 1.0 0.00 0.00 0.00 83 1019.2
20260906205540 79 301 0.0 3.0 0.00 0.00 0.00 83 1019.2
20260906205040 79 299 2.0 2.0 0.00 0.00 0.00 82 1019.3
20260906204540 80 298 0.0 2.0 0.00 0.00 0.00 82 1019.2
20260906204040 80 297 0.0 1.0 0.00 0.00 0.00 82 1019.2
20260906203540 80 297 0.0 0.0 0.00 0.00 0.00 82 1019.2
20260906203040 80 297 0.0 1.0 0.00 0.00 0.00 82 1019.2
20260906202543 80 297 0.0 1.0 0.00 0.00 0.00 82 1019.2
20260906202040 80 296 0.0 1.0 0.00 0.00 0.00 82 1019.3
20260906201540 80 292 0.0 1.0 0.00 0.00 0.00 82 1019.3
20260906201040 80 292 0.0 2.0 0.00 0.00 0.00 82 1019.3
20260906200540 80 290 0.0 1.0 0.00 0.00 0.00 82 1019.3
20260906200040 80 282 0.0 1.0 0.00 0.00 0.00 82 1019.2
20260906195540 80 280 0.0 1.0 0.00 0.00 0.00 82 1019.1
20260906195040 80 280 0.0 2.0 0.00 0.00 0.00 82 1019.1
20260906194543 80 277 0.0 1.0 0.00 0.00 0.00 81 1019.2
20260906194040 80 219 0.0 3.0 0.00 0.00 0.00 81 1019.1
20260906193540 80 259 1.0 2.0 0.00 0.00 0.00 81 1019.1
20260906193040 80 265 0.0 1.0 0.00 0.00 0.00 81 1019.0
20260906192540 80 269 1.0 1.0 0.00 0.00 0.00 81 1019.0
20260906192040 80 271 0.0 2.0 0.00 0.00 0.00 81 1019.0
20260906191540 80 307 1.0 2.0 0.00 0.00 0.00 81 1019.0
20260906191040 81 299 0.0 1.0 0.00 0.00 0.00 81 1019.0
20260906190540 81 262 0.0 1.0 0.00 0.00 0.00 81 1018.9
20260906190040 81 261 0.0 1.0 0.00 0.00 0.00 81 1018.9
20260906185540 81 285 0.0 1.0 0.00 0.00 0.00 81 1018.8
20260906185040 81 252 1.0 3.0 0.00 0.00 0.00 80 1018.8
20260906184540 81 273 0.0 3.0 0.00 0.00 0.00 80 1018.8
20260906184040 81 281 0.0 3.0 0.00 0.00 0.00 80 1018.8
20260906183540 81 279 0.0 2.0 0.00 0.00 0.00 80 1018.7
20260906183040 81 317 0.0 1.0 0.00 0.00 0.00 80 1018.6
20260906182543 81 319 0.0 1.0 0.00 0.00 0.00 80 1018.6
20260906182043 81 276 0.0 1.0 0.00 0.00 0.00 79 1018.5
20260906181540 81 265 0.0 1.0 0.00 0.00 0.00 79 1018.5
20260906181043 81 265 0.0 1.0 0.00 0.00 0.00 79 1018.5
20260906180540 81 257 0.0 2.0 0.00 0.00 0.00 79 1018.4
20260906180040 82 266 0.0 2.0 0.00 0.00 0.00 79 1018.4
20260906175540 82 265 0.0 2.0 0.00 0.00 0.00 79 1018.4
20260906175040 82 281 0.0 1.0 0.00 0.00 0.00 78 1018.2
20260906174540 82 281 0.0 1.0 0.00 0.00 0.00 78 1018.2
20260906174040 82 296 0.0 1.0 0.00 0.00 0.00 78 1018.2
20260906173540 82 289 0.0 1.0 0.00 0.00 0.00 78 1018.2
20260906173043 82 293 0.0 1.0 0.00 0.00 0.00 78 1018.1
20260906172540 82 292 0.0 3.0 0.00 0.00 0.00 77 1018.1
20260906172040 83 250 0.0 1.0 0.00 0.00 0.00 76 1018.0
20260906171540 83 74 2.0 2.0 0.00 0.00 0.00 76 1018.1
20260906171043 83 65 0.0 2.0 0.00 0.00 0.00 76 1018.1
20260906170543 83 275 0.0 1.0 0.00 0.00 0.00 75 1018.1
20260906170040 84 253 1.0 3.0 0.00 0.00 0.00 74 1018.1
20260906165540 84 307 0.0 1.0 0.00 0.00 0.00 73 1018.0
20260906165043 84 293 0.0 3.0 0.00 0.00 0.00 73 1018.1
20260906164543 84 256 0.0 1.0 0.00 0.00 0.00 72 1018.0
20260906164043 84 290 0.0 5.0 0.00 0.00 0.00 72 1018.0
20260906163540 84 355 0.0 2.0 0.00 0.00 0.00 71 1018.0
20260906163043 84 47 1.0 1.0 0.00 0.00 0.00 70 1018.0
20260906162543 85 93 0.0 2.0 0.00 0.00 0.00 70 1018.0
20260906162040 85 184 0.0 5.0 0.00 0.00 0.00 70 1018.0
20260906161540 85 278 0.0 2.0 0.00 0.00 0.00 69 1017.9
20260906161043 85 163 1.0 4.0 0.00 0.00 0.00 69 1017.9
20260906160540 85 261 0.0 2.0 0.00 0.00 0.00 69 1018.0
20260906160040 85 200 0.0 3.0 0.00 0.00 0.00 68 1017.9
20260906155540 86 101 2.0 4.0 0.00 0.00 0.00 68 1017.9
20260906155040 86 256 1.0 2.0 0.00 0.00 0.00 68 1018.0
20260906154540 86 317 0.0 4.0 0.00 0.00 0.00 68 1017.9
20260906154043 86 188 0.0 2.0 0.00 0.00 0.00 68 1017.9
20260906153540 86 250 0.0 4.0 0.00 0.00 0.00 69 1018.0
20260906153040 86 38 1.0 3.0 0.00 0.00 0.00 67 1018.0
20260906152540 86 72 0.0 4.0 0.00 0.00 0.00 68 1018.0
20260906152040 86 217 2.0 4.0 0.00 0.00 0.00 68 1018.1
20260906151543 86 250 4.0 4.0 0.00 0.00 0.00 69 1018.0
20260906151040 86 249 0.0 3.0 0.00 0.00 0.00 68 1018.1
20260906150540 86 278 0.0 7.0 0.00 0.00 0.00 67 1018.1
20260906150040 86 161 2.0 5.0 0.00 0.00 0.00 69 1018.2
20260906145540 86 180 0.0 2.0 0.00 0.00 0.00 70 1018.2
20260906145040 86 305 0.0 5.0 0.00 0.00 0.00 70 1018.2
20260906144540 87 69 0.0 4.0 0.00 0.00 0.00 69 1018.2
20260906144040 86 243 0.0 7.0 0.00 0.00 0.00 69 1018.2
20260906143540 86 193 2.0 7.0 0.00 0.00 0.00 68 1018.2
20260906143040 87 186 1.0 8.0 0.00 0.00 0.00 68 1018.2
20260906142540 87 5 1.0 7.0 0.00 0.00 0.00 68 1018.3
20260906142040 87 207 0.0 9.0 0.00 0.00 0.00 68 1018.3
20260906141540 86 340 0.0 3.0 0.00 0.00 0.00 69 1018.3
20260906141040 86 304 0.0 11.0 0.00 0.00 0.00 68 1018.3
20260906140540 87 9 0.0 2.0 0.00 0.00 0.00 68 1018.2
20260906140040 87 197 0.0 7.0 0.00 0.00 0.00 66 1018.3
20260906135540 87 210 0.0 8.0 0.00 0.00 0.00 66 1018.2
20260906135040 87 277 0.0 3.0 0.00 0.00 0.00 66 1018.3
20260906134540 87 51 1.0 7.0 0.00 0.00 0.00 66 1018.3
20260906134040 86 329 0.0 8.0 0.00 0.00 0.00 68 1018.3
20260906133543 87 220 3.0 8.0 0.00 0.00 0.00 66 1018.3
20260906133040 86 36 0.0 8.0 0.00 0.00 0.00 67 1018.3
20260906132543 86 225 0.0 10.0 0.00 0.00 0.00 67 1018.3
20260906132040 87 229 5.0 8.0 0.00 0.00 0.00 68 1018.4
20260906131540 87 211 3.0 4.0 0.00 0.00 0.00 69 1018.3
20260906131040 86 165 1.0 6.0 0.00 0.00 0.00 70 1018.4
20260906130540 87 254 2.0 13.0 0.00 0.00 0.00 68 1018.4
20260906130042 87 194 2.0 8.0 0.00 0.00 0.00 68 1018.4
20260906125540 87 197 1.0 9.0 0.00 0.00 0.00 68 1018.4
20260906125040 86 213 0.0 10.0 0.00 0.00 0.00 68 1018.4
20260906124540 86 215 2.0 4.0 0.00 0.00 0.00 68 1018.4
20260906124040 86 198 4.0 7.0 0.00 0.00 0.00 68 1018.5
20260906123540 86 163 0.0 8.0 0.00 0.00 0.00 68 1018.4
20260906123040 87 333 2.0 13.0 0.00 0.00 0.00 67 1018.5
20260906122540 87 174 5.0 13.0 0.00 0.00 0.00 66 1018.5
20260906122043 87 294 0.0 4.0 0.00 0.00 0.00 66 1018.5
20260906121540 87 75 1.0 8.0 0.00 0.00 0.00 65 1018.5
20260906121040 88 100 0.0 7.0 0.00 0.00 0.00 66 1018.5
20260906120540 87 231 5.0 5.0 0.00 0.00 0.00 66 1018.5
20260906120040 87 84 1.0 7.0 0.00 0.00 0.00 64 1018.5
20260906115540 87 321 3.0 9.0 0.00 0.00 0.00 64 1018.5
20260906115040 87 208 1.0 3.0 0.00 0.00 0.00 65 1018.5
20260906114540 87 335 2.0 8.0 0.00 0.00 0.00 64 1018.5
20260906114040 87 211 0.0 4.0 0.00 0.00 0.00 64 1018.5
20260906113543 87 124 1.0 9.0 0.00 0.00 0.00 63 1018.4
20260906113043 87 355 0.0 6.0 0.00 0.00 0.00 64 1018.4
20260906112540 88 333 1.0 5.0 0.00 0.00 0.00 63 1018.4
20260906112040 87 355 0.0 8.0 0.00 0.00 0.00 64 1018.4
20260906111540 87 210 0.0 10.0 0.00 0.00 0.00 64 1018.5
20260906111040 87 339 0.0 5.0 0.00 0.00 0.00 65 1018.5
20260906110540 87 231 4.0 7.0 0.00 0.00 0.00 65 1018.5
20260906110040 86 192 0.0 8.0 0.00 0.00 0.00 65 1018.4
20260906105543 86 262 3.0 9.0 0.00 0.00 0.00 64 1018.4
20260906105040 87 213 5.0 6.0 0.00 0.00 0.00 63 1018.4
20260906104540 87 200 3.0 7.0 0.00 0.00 0.00 62 1018.4
20260906104040 87 227 4.0 8.0 0.00 0.00 0.00 63 1018.4
20260906103540 87 181 2.0 3.0 0.00 0.00 0.00 64 1018.3
20260906103040 86 217 0.0 11.0 0.00 0.00 0.00 65 1018.4
20260906102540 86 222 8.0 8.0 0.00 0.00 0.00 64 1018.4
20260906102043 87 212 1.0 9.0 0.00 0.00 0.00 63 1018.4
20260906101543 87 207 1.0 6.0 0.00 0.00 0.00 63 1018.4
20260906101040 87 238 0.0 7.0 0.00 0.00 0.00 63 1018.4
20260906100540 87 207 4.0 6.0 0.00 0.00 0.00 62 1018.4
20260906100040 88 236 0.0 5.0 0.00 0.00 0.00 62 1018.5
20260906095540 88 198 0.0 8.0 0.00 0.00 0.00 62 1018.5
20260906095040 88 260 1.0 7.0 0.00 0.00 0.00 62 1018.4
20260906094543 88 195 5.0 7.0 0.00 0.00 0.00 61 1018.4
20260906094040 88 148 0.0 2.0 0.00 0.00 0.00 61 1018.5
20260906093540 88 175 1.0 2.0 0.00 0.00 0.00 62 1018.4
20260906093040 88 125 0.0 4.0 0.00 0.00 0.00 62 1018.4
20260906092540 88 260 0.0 5.0 0.00 0.00 0.00 62 1018.4
20260906092043 88 190 0.0 4.0 0.00 0.00 0.00 61 1018.4
20260906091540 88 221 0.0 4.0 0.00 0.00 0.00 62 1018.5
20260906091040 88 223 2.0 5.0 0.00 0.00 0.00 62 1018.4
20260906090540 87 229 4.0 4.0 0.00 0.00 0.00 62 1018.4
20260906085040 87 339 0.0 2.0 0.00 0.00 0.00 63 1018.4
20260906084540 87 177 0.0 1.0 0.00 0.00 0.00 63 1018.5
20260906084040 86 178 0.0 1.0 0.00 0.00 0.00 64 1018.4
20260906083540 85 178 0.0 5.0 0.00 0.00 0.00 64 1018.4
20260906083043 86 194 1.0 4.0 0.00 0.00 0.00 63 1018.4
20260906082540 86 234 2.0 2.0 0.00 0.00 0.00 63 1018.5
20260906082040 86 235 1.0 2.0 0.00 0.00 0.00 63 1018.4
20260906081540 86 240 0.0 4.0 0.00 0.00 0.00 62 1018.3
20260906081040 86 186 0.0 0.0 0.00 0.00 0.00 64 1018.2
20260906080540 85 187 0.0 2.0 0.00 0.00 0.00 64 1018.2
20260906080040 85 281 0.0 2.0 0.00 0.00 0.00 66 1018.2
20260906075540 85 284 0.0 2.0 0.00 0.00 0.00 67 1018.1
20260906075040 84 355 2.0 3.0 0.00 0.00 0.00 68 1018.1
20260906074543 83 302 0.0 2.0 0.00 0.00 0.00 69 1018.0
20260906074040 83 304 0.0 2.0 0.00 0.00 0.00 69 1018.0
20260906073540 83 301 0.0 4.0 0.00 0.00 0.00 69 1018.0
20260906073040 84 331 3.0 4.0 0.00 0.00 0.00 69 1018.0
20260906072540 83 113 0.0 1.0 0.00 0.00 0.00 71 1017.9
20260906072040 82 113 1.0 3.0 0.00 0.00 0.00 72 1017.9
20260906071540 82 14 0.0 2.0 0.00 0.00 0.00 73 1017.8
20260906071040 81 15 1.0 3.0 0.00 0.00 0.00 73 1017.9
20260906070540 81 5 1.0 1.0 0.00 0.00 0.00 74 1017.8
20260906070040 81 5 0.0 3.0 0.00 0.00 0.00 75 1017.9
20260906065540 80 325 2.0 3.0 0.00 0.00 0.00 75 1017.9
20260906065040 80 325 0.0 4.0 0.00 0.00 0.00 75 1017.8
20260906064540 80 333 3.0 4.0 0.00 0.00 0.00 75 1017.8
20260906064040 80 338 2.0 3.0 0.00 0.00 0.00 74 1017.7
20260906063540 80 339 1.0 3.0 0.00 0.00 0.00 73 1017.7
20260906063040 81 338 1.0 3.0 0.00 0.00 0.00 73 1017.7
20260906062540 80 337 0.0 0.0 0.00 0.00 0.00 73 1017.7
20260906062040 80 337 0.0 0.0 0.00 0.00 0.00 73 1017.7
20260906061540 79 337 0.0 0.0 0.00 0.00 0.00 73 1017.7
20260906061040 79 337 0.0 0.0 0.00 0.00 0.00 74 1017.7
20260906060540 79 337 0.0 0.0 0.00 0.00 0.00 75 1017.6
20260906060043 78 337 0.0 0.0 0.00 0.00 0.00 76 1017.6
20260906055540 77 337 0.0 0.0 0.00 0.00 0.00 77 1017.6
20260906055040 77 337 0.0 0.0 0.00 0.00 0.00 77 1017.6
20260906054540 76 337 0.0 0.0 0.00 0.00 0.00 78 1017.5
20260906054040 76 337 0.0 0.0 0.00 0.00 0.00 78 1017.5
20260906053540 76 337 0.0 0.0 0.00 0.00 0.00 79 1017.4
20260906053040 75 337 0.0 0.0 0.00 0.00 0.00 80 1017.4
20260906052543 75 337 0.0 0.0 0.00 0.00 0.00 80 1017.4
20260906052040 75 337 0.0 0.0 0.00 0.00 0.00 81 1017.4
20260906051540 74 337 0.0 0.0 0.00 0.00 0.00 81 1017.3
20260906051043 74 337 0.0 1.0 0.00 0.00 0.00 81 1017.4
20260906050543 74 337 0.0 1.0 0.00 0.00 0.00 81 1017.3
20260906050040 74 337 0.0 2.0 0.00 0.00 0.00 82 1017.2
20260906045540 74 343 0.0 1.0 0.00 0.00 0.00 81 1017.2
20260906045043 74 350 0.0 1.0 0.00 0.00 0.00 81 1017.2
20260906044540 74 350 0.0 1.0 0.00 0.00 0.00 81 1017.2
20260906044040 74 350 0.0 1.0 0.00 0.00 0.00 81 1017.2
20260906043540 75 355 1.0 1.0 0.00 0.00 0.00 81 1017.2
20260906043040 75 355 0.0 0.0 0.00 0.00 0.00 80 1017.2
20260906042540 75 355 0.0 1.0 0.00 0.00 0.00 80 1017.2
20260906042040 76 355 0.0 1.0 0.00 0.00 0.00 81 1017.2
20260906041540 76 355 0.0 0.0 0.00 0.00 0.00 81 1017.2
20260906041040 76 355 0.0 1.0 0.00 0.00 0.00 81 1017.1
20260906040543 76 355 0.0 1.0 0.00 0.00 0.00 81 1017.1
20260906040040 76 355 0.0 1.0 0.00 0.00 0.00 81 1017.0
20260906035541 76 355 0.0 1.0 0.00 0.00 0.00 81 1017.1
20260906035042 76 355 0.0 1.0 0.00 0.00 0.00 81 1017.0
20260906034540 76 355 0.0 0.0 0.00 0.00 0.00 81 1017.0
20260906034043 76 355 0.0 0.0 0.00 0.00 0.00 81 1017.0
20260906033540 76 355 0.0 1.0 0.00 0.00 0.00 81 1017.0
20260906033040 76 355 0.0 0.0 0.00 0.00 0.00 81 1016.9
20260906032540 76 355 0.0 0.0 0.00 0.00 0.00 81 1017.0
20260906032043 76 355 0.0 0.0 0.00 0.00 0.00 81 1017.0
20260906031540 76 355 0.0 0.0 0.00 0.00 0.00 80 1016.9
20260906031040 76 355 0.0 0.0 0.00 0.00 0.00 80 1017.0
20260906030539 77 355 0.0 0.0 0.00 0.00 0.00 80 1017.0
20260906030040 77 355 0.0 0.0 0.00 0.00 0.00 80 1016.9
20260906025540 77 355 0.0 0.0 0.00 0.00 0.00 80 1016.9
20260906025040 77 355 0.0 0.0 0.00 0.00 0.00 80 1017.0
20260906024540 77 355 0.0 1.0 0.00 0.00 0.00 80 1017.0
20260906024040 77 355 0.0 0.0 0.00 0.00 0.00 80 1017.0
20260906023540 77 355 0.0 1.0 0.00 0.00 0.00 80 1017.0
20260906023040 77 355 0.0 1.0 0.00 0.00 0.00 80 1017.0
20260906022539 77 355 1.0 2.0 0.00 0.00 0.00 80 1017.0
20260906022043 77 355 0.0 2.0 0.00 0.00 0.00 80 1017.0
20260906021540 77 355 0.0 1.0 0.00 0.00 0.00 80 1017.0
20260906021040 77 355 0.0 1.0 0.00 0.00 0.00 80 1017.0
20260906020540 77 355 0.0 2.0 0.00 0.00 0.00 80 1017.0
20260906020040 77 355 1.0 2.0 0.00 0.00 0.00 80 1017.0
20260906015540 77 355 0.0 1.0 0.00 0.00 0.00 79 1017.0
20260906015040 77 355 0.0 1.0 0.00 0.00 0.00 79 1017.0
20260906014539 78 355 0.0 2.0 0.00 0.00 0.00 79 1017.0
20260906014040 78 355 2.0 3.0 0.00 0.00 0.00 79 1017.0
20260906013540 77 351 2.0 3.0 0.00 0.00 0.00 79 1017.0
20260906013043 77 0 2.0 3.0 0.00 0.00 0.00 78 1017.1
20260906012540 77 5 1.0 1.0 0.00 0.00 0.00 78 1017.1
20260906012040 77 5 0.0 1.0 0.00 0.00 0.00 77 1017.1
20260906011540 77 5 0.0 3.0 0.00 0.00 0.00 77 1017.1
20260906011040 77 5 1.0 4.0 0.00 0.00 0.00 77 1017.1
20260906010540 77 0 1.0 3.0 0.00 0.00 0.00 77 1017.0
20260906010040 78 0 1.0 2.0 0.00 0.00 0.00 76 1017.0
20260906005540 78 0 3.0 3.0 0.00 0.00 0.00 76 1017.0
20260906005040 78 0 0.0 2.0 0.00 0.00 0.00 76 1017.0
20260906004540 78 0 0.0 3.0 0.00 0.00 0.00 76 1017.0
20260906004039 78 9 0.0 3.0 0.00 0.00 0.00 75 1017.1
20260906003543 78 5 0.0 3.0 0.00 0.00 0.00 75 1017.1
20260906003039 78 11 2.0 3.0 0.00 0.00 0.00 75 1017.1
20260906002539 78 9 1.0 3.0 0.00 0.00 0.00 75 1017.1
20260906002040 78 9 1.0 4.0 0.00 0.00 0.00 75 1017.2
20260906001540 78 340 0.0 2.0 0.00 0.00 0.00 75 1017.3
20260906001040 78 340 0.0 1.0 0.00 0.00 0.00 75 1017.4
20260906000540 78 340 0.0 1.0 0.00 0.00 0.00 75 1017.4
20260906000040 78 340 0.0 2.0 0.00 0.00 0.00 75 1017.4
20260905235540 78 340 0.0 2.0 0.00 0.00 0.00 76 1017.4
20260905235043 78 340 0.0 2.0 0.00 0.00 0.00 75 1017.4
20260905234540 78 340 0.0 1.0 0.00 0.00 0.00 75 1017.3
20260905234040 78 340 1.0 1.0 0.00 0.00 0.00 74 1017.4
20260905233539 78 340 0.0 1.0 0.00 0.00 0.00 73 1017.3
20260905233040 78 340 0.0 0.0 0.00 0.00 0.00 72 1017.4
20260905232540 78 340 0.0 0.0 0.00 0.00 0.00 72 1017.4
20260905232039 78 340 0.0 0.0 0.00 0.00 0.00 72 1017.5
20260905231540 78 340 0.0 1.0 0.00 0.00 0.00 72 1017.4
20260905231040 78 340 0.0 1.0 0.00 0.00 0.00 72 1017.5
20260905230540 78 340 0.0 1.0 0.00 0.00 0.00 72 1017.4
20260905230040 78 340 0.0 0.0 0.00 0.00 0.00 71 1017.4
20260905225540 78 340 0.0 0.0 0.00 0.00 0.00 71 1017.4
20260905225040 78 340 0.0 2.0 0.00 0.00 0.00 71 1017.4
20260905224540 78 340 0.0 1.0 0.00 0.00 0.00 71 1017.5
20260905224040 78 340 0.0 2.0 0.00 0.00 0.00 71 1017.5
20260905223539 78 340 1.0 2.0 0.00 0.00 0.00 70 1017.5
20260905223040 78 340 0.0 2.0 0.00 0.00 0.00 70 1017.6
20260905222539 78 340 0.0 1.0 0.00 0.00 0.00 71 1017.6
20260905222040 79 340 0.0 1.0 0.00 0.00 0.00 71 1017.5
20260905221539 78 340 0.0 1.0 0.00 0.00 0.00 71 1017.5
20260905221040 78 340 0.0 1.0 0.00 0.00 0.00 71 1017.6
20260905220540 78 340 0.0 1.0 0.00 0.00 0.00 71 1017.5
20260905220039 78 340 0.0 2.0 0.00 0.00 0.00 72 1017.4
20260905215543 78 340 0.0 1.0 0.00 0.00 0.00 73 1017.4
20260905215039 78 340 0.0 3.0 0.00 0.00 0.00 73 1017.4